When you browse on this site, cookies collect data to enhance your experience and personalize the content and advertising you see.
Visit our Privacy Policy to learn more. By continuing to use the site, you agree to this use of cookies and data.

Hourly Weather Mendoza

Today, 7 July, Tuesday

Time Temperature Precipitation Wind Pressure Humidity
00:00 +6°C° 0 mm 2 mps 699 mmHg 66%
01:00 +6°C° 0 mm 2 mps 699 mmHg 67%
02:00 +6°C° 0 mm 2 mps 699 mmHg 70%
03:00 +6°C° 0 mm 2 mps 699 mmHg 73%
04:00 +5°C° 0 mm 2 mps 699 mmHg 75%
05:00 +5°C° 0 mm 2 mps 699 mmHg 76%
06:00 +5°C° 0 mm 2 mps 699 mmHg 76%
07:00 +5°C° 0 mm 2 mps 699 mmHg 77%
08:00 +6°C° 0 mm 2 mps 700 mmHg 73%
09:00 +7°C° 0 mm 2 mps 700 mmHg 68%
10:00 +8°C° 0 mm 2 mps 700 mmHg 64%
11:00 +9°C° 0 mm 2 mps 699 mmHg 61%
12:00 +10°C° 0 mm 1 mps 699 mmHg 57%
13:00 +11°C° 0 mm 1 mps 698 mmHg 53%
14:00 +11°C° 0 mm 1 mps 698 mmHg 53%
15:00 +11°C° 0 mm 1 mps 698 mmHg 52%
16:00 +11°C° 0 mm 1 mps 699 mmHg 52%
17:00 +10°C° 0 mm 1 mps 699 mmHg 53%
18:00 +10°C° 0 mm 1 mps 699 mmHg 54%
19:00 +9°C° 0 mm 1 mps 700 mmHg 56%
20:00 +9°C° 0 mm 1 mps 699 mmHg 54%
21:00 +7°C° 0 mm 2 mps 699 mmHg 52%
22:00 +7°C° 0 mm 3 mps 699 mmHg 50%
23:00 +7°C° 0 mm 3 mps 699 mmHg 51%

Tomorrow, 8 July, Wednesday

Time Temperature Precipitation Wind Pressure Humidity
00:00 +7°C° 0 mm 3 mps 698 mmHg 53%
01:00 +5°C° 0 mm 3 mps 697 mmHg 54%
02:00 +5°C° 0 mm 4 mps 697 mmHg 54%
03:00 +5°C° 0 mm 4 mps 696 mmHg 54%
04:00 +4°C° 0 mm 4 mps 696 mmHg 54%
05:00 +4°C° 0 mm 4 mps 696 mmHg 54%
06:00 +4°C° 0 mm 3 mps 696 mmHg 54%
07:00 +4°C° 0 mm 3 mps 696 mmHg 54%
08:00 +5°C° 0 mm 3 mps 697 mmHg 50%
09:00 +7°C° 0 mm 4 mps 697 mmHg 47%
10:00 +10°C° 0 mm 4 mps 698 mmHg 43%
11:00 +10°C° 0 mm 5 mps 698 mmHg 40%
12:00 +12°C° 0 mm 5 mps 698 mmHg 37%
13:00 +13°C° 0 mm 6 mps 698 mmHg 34%
14:00 +12°C° 0 mm 5 mps 699 mmHg 36%
15:00 +12°C° 0 mm 5 mps 699 mmHg 38%
16:00 +10°C° 0 mm 5 mps 700 mmHg 41%
17:00 +10°C° 0 mm 3 mps 700 mmHg 46%
18:00 +9°C° 0 mm 2 mps 700 mmHg 51%
19:00 +9°C° 0 mm 1 mps 701 mmHg 57%
20:00 +8°C° 0 mm 1 mps 701 mmHg 59%
21:00 +8°C° 0 mm 1 mps 701 mmHg 62%
22:00 +7°C° 0 mm 1 mps 701 mmHg 65%
23:00 +7°C° 0 mm 1 mps 701 mmHg 66%

Day after tomorrow, 9 July, Thursday

Time Temperature Precipitation Wind Pressure Humidity
00:00 +7°C° 0 mm 1 mps 701 mmHg 68%
01:00 +5°C° 0 mm 0 mps 700 mmHg 70%
02:00 +5°C° 0 mm 0 mps 700 mmHg 70%
03:00 +5°C° 0 mm 0 mps 700 mmHg 70%
04:00 +4°C° 0 mm 0 mps 699 mmHg 70%
05:00 +4°C° 0 mm 0 mps 699 mmHg 70%
06:00 +4°C° 0 mm 0 mps 699 mmHg 70%
07:00 +4°C° 0 mm 0 mps 699 mmHg 70%
08:00 +6°C° 0 mm 1 mps 699 mmHg 65%
09:00 +8°C° 0 mm 1 mps 699 mmHg 59%
10:00 +8°C° 0 mm 2 mps 699 mmHg 54%
11:00 +9°C° 0 mm 2 mps 699 mmHg 52%
12:00 +10°C° 0 mm 2 mps 698 mmHg 50%
13:00 +11°C° 0 mm 3 mps 697 mmHg 48%
14:00 +11°C° 0 mm 3 mps 697 mmHg 46%
15:00 +12°C° 0 mm 3 mps 697 mmHg 45%
16:00 +12°C° 0 mm 3 mps 696 mmHg 43%
17:00 +12°C° 0 mm 2 mps 696 mmHg 45%
18:00 +10°C° 0 mm 2 mps 696 mmHg 47%
19:00 +10°C° 0 mm 1 mps 696 mmHg 49%
20:00 +10°C° 0 mm 1 mps 696 mmHg 50%
21:00 +9°C° 0 mm 1 mps 696 mmHg 50%
22:00 +9°C° 0 mm 1 mps 696 mmHg 51%
23:00 +8°C° 0 mm 1 mps 696 mmHg 52%

10 July, Friday

Time Temperature Precipitation Wind Pressure Humidity
00:00 +7°C° 0 mm 2 mps 696 mmHg 53%
01:00 +7°C° 0 mm 2 mps 696 mmHg 54%
02:00 +7°C° 0 mm 2 mps 696 mmHg 56%
03:00 +6°C° 0 mm 2 mps 696 mmHg 57%
04:00 +7°C° 0 mm 1 mps 696 mmHg 59%
05:00 +7°C° 0 mm 1 mps 696 mmHg 59%
06:00 +7°C° 0 mm 1 mps 697 mmHg 58%
07:00 +7°C° 0 mm 1 mps 697 mmHg 57%
08:00 +9°C° 0 mm 1 mps 698 mmHg 51%
09:00 +11°C° 0 mm 1 mps 698 mmHg 45%
10:00 +13°C° 0 mm 1 mps 698 mmHg 39%
11:00 +14°C° 0 mm 1 mps 698 mmHg 36%
12:00 +15°C° 0 mm 1 mps 698 mmHg 33%
13:00 +16°C° 0 mm 2 mps 697 mmHg 30%
14:00 +16°C° 0 mm 1 mps 697 mmHg 31%
15:00 +16°C° 0 mm 1 mps 697 mmHg 32%
16:00 +15°C° 0 mm 1 mps 697 mmHg 33%
17:00 +14°C° 0 mm 1 mps 697 mmHg 37%
18:00 +13°C° 0 mm 1 mps 697 mmHg 41%
19:00 +11°C° 0 mm 1 mps 697 mmHg 45%
20:00 +11°C° 0 mm 1 mps 696 mmHg 46%
21:00 +10°C° 0 mm 1 mps 696 mmHg 46%
22:00 +10°C° 0 mm 1 mps 696 mmHg 47%
23:00 +10°C° 0 mm 1 mps 695 mmHg 48%

11 July, Saturday

Time Temperature Precipitation Wind Pressure Humidity
00:00 +9°C° 0 mm 1 mps 695 mmHg 48%
01:00 +9°C° 0 mm 1 mps 694 mmHg 49%
02:00 +8°C° 0 mm 1 mps 694 mmHg 50%
03:00 +8°C° 0 mm 1 mps 693 mmHg 51%
04:00 +8°C° 0 mm 1 mps 692 mmHg 52%
05:00 +8°C° 0 mm 1 mps 693 mmHg 52%
06:00 +8°C° 0 mm 1 mps 693 mmHg 53%
07:00 +7°C° 0 mm 2 mps 693 mmHg 53%
08:00 +9°C° 0 mm 2 mps 693 mmHg 48%
09:00 +12°C° 0 mm 2 mps 693 mmHg 43%
10:00 +14°C° 0 mm 2 mps 694 mmHg 38%
11:00 +16°C° 0 mm 2 mps 693 mmHg 35%
12:00 +17°C° 0 mm 2 mps 693 mmHg 32%
13:00 +18°C° 0 mm 2 mps 693 mmHg 29%
14:00 +19°C° 0 mm 1 mps 693 mmHg 30%
15:00 +19°C° 0 mm 1 mps 693 mmHg 31%
16:00 +18°C° 0 mm 1 mps 694 mmHg 33%
17:00 +16°C° 0 mm 1 mps 694 mmHg 33%
18:00 +15°C° 0 mm 1 mps 695 mmHg 33%
19:00 +14°C° 0 mm 2 mps 695 mmHg 34%
20:00 +14°C° 0 mm 2 mps 696 mmHg 34%
21:00 +12°C° 0 mm 3 mps 696 mmHg 34%
22:00 +12°C° 0 mm 3 mps 697 mmHg 35%
23:00 +11°C° 0 mm 3 mps 697 mmHg 41%

12 July, Sunday

Time Temperature Precipitation Wind Pressure Humidity
00:00 +11°C° 0 mm 3 mps 698 mmHg 47%
01:00 +10°C° 0 mm 4 mps 698 mmHg 53%
02:00 +9°C° 0 mm 3 mps 698 mmHg 54%
03:00 +8°C° 0 mm 3 mps 698 mmHg 55%
04:00 +7°C° 0 mm 3 mps 698 mmHg 56%
05:00 +5°C° 0 mm 3 mps 698 mmHg 55%
06:00 +6°C° 0 mm 2 mps 698 mmHg 54%
07:00 +6°C° 0 mm 2 mps 698 mmHg 53%
08:00 +7°C° 0 mm 2 mps 698 mmHg 49%
09:00 +8°C° 0 mm 2 mps 698 mmHg 45%
10:00 +9°C° 0 mm 2 mps 698 mmHg 42%
11:00 +9°C° 0 mm 2 mps 698 mmHg 41%
12:00 +10°C° 0 mm 2 mps 697 mmHg 40%
13:00 +12°C° 0 mm 1 mps 697 mmHg 39%
14:00 +12°C° 0 mm 1 mps 697 mmHg 39%
15:00 +12°C° 0 mm 1 mps 697 mmHg 38%
16:00 +12°C° 0 mm 1 mps 696 mmHg 38%
17:00 +11°C° 0 mm 1 mps 697 mmHg 39%
18:00 +10°C° 0 mm 1 mps 697 mmHg 41%
19:00 +10°C° 0 mm 1 mps 697 mmHg 42%
20:00 +9°C° 0 mm 1 mps 697 mmHg 42%
21:00 +9°C° 0 mm 1 mps 697 mmHg 42%
22:00 +8°C° 0 mm 1 mps 697 mmHg 42%
23:00 +8°C° 0 mm 1 mps 697 mmHg 43%
Show more